| time (UTC) | temp C | wind direction | speed KPH | gust KPH | rain 1hr cm | rain 24hr cm | rain mn cm | humidity % | barometer mb |
| 20260831214551 | 18 | 170 | 0.0 | 6.4 | 0.00 | 0.33 | 0.00 | 44 | 1008.9 |
| 20260831213050 | 18 | 167 | 0.0 | 6.4 | 0.00 | 0.33 | 0.00 | 44 | 1009.0 |
| 20260831211505 | 19 | 168 | 6.4 | 14.5 | 0.00 | 0.33 | 0.00 | 42 | 1009.0 |
| 20260831210026 | 19 | 140 | 0.0 | 1.6 | 0.00 | 0.33 | 0.00 | 42 | 1009.0 |
| 20260831204504 | 18 | 276 | 0.0 | 0.0 | 0.00 | 0.33 | 0.00 | 43 | 1009.3 |
| 20260831203030 | 18 | 121 | 1.6 | 9.7 | 0.00 | 0.33 | 0.00 | 41 | 1009.7 |
| 20260831201534 | 18 | 148 | 3.2 | 6.4 | 0.00 | 0.33 | 0.00 | 42 | 1009.7 |
| 20260831200042 | 18 | 272 | 0.0 | 0.0 | 0.00 | 0.33 | 0.00 | 44 | 1010.0 |
| 20260831194526 | 17 | 272 | 0.0 | 6.4 | 0.00 | 0.33 | 0.00 | 43 | 1010.1 |
| 20260831193051 | 17 | 346 | 0.0 | 9.7 | 0.00 | 0.33 | 0.00 | 46 | 1010.1 |
| 20260831191524 | 17 | 179 | 0.0 | 0.0 | 0.00 | 0.33 | 0.00 | 52 | 1010.1 |
| 20260831190052 | 17 | 178 | 0.0 | 0.0 | 0.00 | 0.33 | 0.00 | 43 | 1010.4 |
| 20260831184556 | 17 | 178 | 0.0 | 0.0 | 0.00 | 0.33 | 0.00 | 47 | 1010.7 |
| 20260831183057 | 17 | 244 | 0.0 | 0.0 | 0.00 | 0.33 | 0.00 | 48 | 1010.9 |
| 20260831181554 | 16 | 230 | 0.0 | 0.0 | 0.00 | 0.33 | 0.00 | 52 | 1011.1 |
| 20260831180010 | 16 | 171 | 0.0 | 0.0 | 0.00 | 0.33 | 0.00 | 53 | 1011.3 |
| 20260831174527 | 16 | 173 | 0.0 | 0.0 | 0.00 | 0.33 | 0.00 | 53 | 1011.2 |
| 20260831173038 | 17 | 255 | 0.0 | 0.0 | 0.00 | 0.33 | 0.00 | 50 | 1011.1 |
| 20260831171552 | 16 | 151 | 1.6 | 8.0 | 0.00 | 0.33 | 0.00 | 49 | 1010.8 |
| 20260831170052 | 16 | 205 | 0.0 | 11.3 | 0.00 | 0.33 | 0.00 | 56 | 1011.0 |
| 20260831164526 | 15 | 181 | 0.0 | 4.8 | 0.00 | 0.33 | 0.00 | 58 | 1010.9 |
| 20260831163006 | 15 | 144 | 0.0 | 3.2 | 0.00 | 0.33 | 0.00 | 63 | 1010.9 |
| 20260831161522 | 15 | 68 | 0.0 | 0.0 | 0.00 | 0.33 | 0.00 | 62 | 1010.7 |
| 20260831160002 | 15 | 68 | 0.0 | 0.0 | 0.00 | 0.33 | 0.00 | 66 | 1010.6 |
| 20260831154503 | 14 | 68 | 0.0 | 0.0 | 0.00 | 0.33 | 0.00 | 65 | 1010.3 |
| 20260831153056 | 13 | 68 | 0.0 | 0.0 | 0.00 | 0.33 | 0.00 | 64 | 1010.3 |
| 20260831151552 | 13 | 68 | 0.0 | 0.0 | 0.00 | 0.33 | 0.00 | 70 | 1010.2 |
| 20260831150104 | 12 | 68 | 0.0 | 3.2 | 0.00 | 0.33 | 0.00 | 70 | 1010.2 |
| 20260831144606 | 11 | 68 | 1.6 | 4.8 | 0.00 | 0.33 | 0.00 | 72 | 1010.2 |
| 20260831143100 | 11 | 115 | 0.0 | 0.0 | 0.00 | 0.33 | 0.00 | 76 | 1010.3 |
| 20260831141605 | 10 | 116 | 0.0 | 0.0 | 0.00 | 0.33 | 0.00 | 77 | 1010.1 |
| 20260831140002 | 10 | 116 | 0.0 | 0.0 | 0.00 | 0.33 | 0.00 | 78 | 1010.2 |
| 20260831134506 | 10 | 116 | 0.0 | 0.0 | 0.00 | 0.33 | 0.00 | 78 | 1010.0 |
| 20260831133034 | 9 | 116 | 0.0 | 0.0 | 0.00 | 0.33 | 0.00 | 78 | 1010.0 |
| 20260831131554 | 8 | 116 | 0.0 | 0.0 | 0.00 | 0.33 | 0.00 | 79 | 1009.8 |
| 20260831130047 | 8 | 116 | 0.0 | 0.0 | 0.00 | 0.33 | 0.00 | 79 | 1009.4 |
| 20260831124546 | 8 | 116 | 0.0 | 0.0 | 0.00 | 0.33 | 0.00 | 78 | 1009.2 |
| 20260831123053 | 8 | 116 | 0.0 | 0.0 | 0.00 | 0.33 | 0.00 | 79 | 1009.1 |
| 20260831121607 | 8 | 116 | 0.0 | 0.0 | 0.00 | 0.33 | 0.00 | 77 | 1008.8 |
| 20260831120130 | 9 | 116 | 0.0 | 0.0 | 0.00 | 0.33 | 0.00 | 76 | 1008.9 |
| 20260831114611 | 9 | 116 | 0.0 | 0.0 | 0.00 | 0.33 | 0.00 | 75 | 1008.8 |
| 20260831113003 | 8 | 116 | 3.2 | 6.4 | 0.00 | 0.33 | 0.00 | 78 | 1008.9 |
| 20260831111509 | 8 | 138 | 0.0 | 0.0 | 0.00 | 0.33 | 0.00 | 79 | 1008.8 |
| 20260831110151 | 9 | 138 | 0.0 | 0.0 | 0.00 | 0.33 | 0.00 | 78 | 1008.9 |
| 20260831104606 | 8 | 138 | 0.0 | 0.0 | 0.00 | 0.33 | 0.00 | 80 | 1008.8 |
| 20260831103129 | 8 | 138 | 0.0 | 0.0 | 0.00 | 0.33 | 0.00 | 80 | 1008.8 |
| 20260831101554 | 8 | 138 | 0.0 | 0.0 | 0.00 | 0.33 | 0.00 | 80 | 1008.6 |
| 20260831100052 | 8 | 138 | 0.0 | 0.0 | 0.00 | 0.33 | 0.00 | 80 | 1008.3 |
| 20260831094534 | 8 | 138 | 0.0 | 0.0 | 0.00 | 0.33 | 0.00 | 81 | 1008.2 |
| 20260831093048 | 8 | 138 | 0.0 | 0.0 | 0.00 | 0.33 | 0.00 | 81 | 1008.0 |
| 20260831091535 | 8 | 138 | 0.0 | 0.0 | 0.00 | 0.33 | 0.00 | 82 | 1007.9 |
| 20260831090051 | 8 | 138 | 0.0 | 0.0 | 0.00 | 0.33 | 0.00 | 83 | 1007.7 |
| 20260831084547 | 8 | 138 | 0.0 | 0.0 | 0.00 | 0.33 | 0.00 | 83 | 1007.7 |
| 20260831083108 | 8 | 138 | 0.0 | 0.0 | 0.00 | 0.33 | 0.00 | 83 | 1007.6 |
| 20260831081503 | 9 | 138 | 0.0 | 0.0 | 0.00 | 0.33 | 0.00 | 82 | 1007.6 |
| 20260831080057 | 10 | 138 | 0.0 | 0.0 | 0.00 | 0.33 | 0.00 | 79 | 1007.7 |
| 20260831074503 | 10 | 138 | 0.0 | 3.2 | 0.00 | 0.33 | 0.00 | 81 | 1007.7 |
| 20260831073029 | 9 | 138 | 0.0 | 11.3 | 0.00 | 0.33 | 0.00 | 84 | 1008.0 |
| 20260831071543 | 8 | 119 | 1.6 | 4.8 | 0.00 | 0.33 | 0.00 | 86 | 1008.1 |
| 20260831070020 | 8 | 119 | 0.0 | 0.0 | 0.00 | 0.33 | 0.00 | 86 | 1008.3 |
| 20260831064535 | 9 | 119 | 0.0 | 0.0 | 0.00 | 0.33 | 0.00 | 85 | 1007.8 |
| 20260831063046 | 10 | 119 | 0.0 | 4.8 | 0.00 | 0.33 | 0.00 | 85 | 1008.0 |
| 20260831061547 | 10 | 143 | 3.2 | 4.8 | 0.00 | 0.33 | 0.00 | 86 | 1008.1 |
| 20260831060052 | 10 | 144 | 1.6 | 4.8 | 0.00 | 0.33 | 0.00 | 86 | 1008.5 |
| 20260831054552 | 10 | 144 | 0.0 | 6.4 | 0.00 | 0.33 | 0.33 | 85 | 1008.8 |
| 20260831053122 | 10 | 128 | 1.6 | 11.3 | 0.00 | 0.33 | 0.33 | 87 | 1008.9 |
| 20260831051549 | 10 | 131 | 0.0 | 9.7 | 0.03 | 0.33 | 0.33 | 88 | 1008.8 |
| 20260831050104 | 9 | 156 | 1.6 | 8.0 | 0.05 | 0.33 | 0.33 | 90 | 1008.9 |
| 20260831044504 | 9 | 107 | 0.0 | 4.8 | 0.15 | 0.33 | 0.33 | 89 | 1008.9 |
| 20260831043152 | 9 | 103 | 1.6 | 16.1 | 0.23 | 0.33 | 0.33 | 89 | 1008.5 |
| 20260831041617 | 9 | 125 | 3.2 | 12.9 | 0.28 | 0.30 | 0.30 | 90 | 1008.6 |
| 20260831040050 | 10 | 119 | 1.6 | 11.3 | 0.28 | 0.28 | 0.28 | 89 | 1008.7 |
| 20260831034549 | 10 | 207 | 0.0 | 0.0 | 0.18 | 0.18 | 0.18 | 87 | 1009.6 |
| 20260831033108 | 11 | 207 | 0.0 | 4.8 | 0.10 | 0.10 | 0.10 | 82 | 1009.7 |
| 20260831031602 | 12 | 284 | 0.0 | 25.7 | 0.03 | 0.03 | 0.03 | 75 | 1009.4 |
| 20260831030127 | 12 | 60 | 0.0 | 0.0 | 0.00 | 0.00 | 0.00 | 66 | 1008.0 |
| 20260831024600 | 12 | 45 | 0.0 | 12.9 | 0.00 | 0.00 | 0.00 | 66 | 1007.2 |
| 20260831023059 | 12 | 37 | 0.0 | 6.4 | 0.00 | 0.00 | 0.00 | 68 | 1007.0 |
| 20260831021552 | 12 | 29 | 0.0 | 0.0 | 0.00 | 0.00 | 0.00 | 70 | 1007.1 |
| 20260831020100 | 13 | 321 | 0.0 | 0.0 | 0.00 | 0.00 | 0.00 | 70 | 1006.9 |
| 20260831014507 | 13 | 327 | 4.8 | 14.5 | 0.00 | 0.00 | 0.00 | 67 | 1006.8 |
| 20260831013037 | 14 | 101 | 0.0 | 0.0 | 0.00 | 0.00 | 0.00 | 67 | 1006.5 |
| 20260831011506 | 14 | 101 | 0.0 | 0.0 | 0.00 | 0.00 | 0.00 | 63 | 1005.9 |
| 20260831010131 | 14 | 101 | 0.0 | 0.0 | 0.00 | 0.00 | 0.00 | 64 | 1005.7 |
| 20260831004503 | 15 | 101 | 0.0 | 0.0 | 0.00 | 0.00 | 0.00 | 61 | 1005.7 |
| 20260831003111 | 15 | 340 | 0.0 | 0.0 | 0.00 | 0.00 | 0.00 | 58 | 1005.9 |
| 20260831001605 | 15 | 347 | 0.0 | 0.0 | 0.00 | 0.00 | 0.00 | 59 | 1006.0 |
| 20260831000002 | 15 | 317 | 0.0 | 0.0 | 0.00 | 0.00 | 0.00 | 60 | 1005.9 |
| 20260830234631 | 14 | 126 | 0.0 | 0.0 | 0.00 | 0.00 | 0.00 | 64 | 1005.9 |
| 20260830233152 | 13 | 126 | 0.0 | 0.0 | 0.00 | 0.00 | 0.00 | 65 | 1005.7 |
| 20260830231502 | 13 | 121 | 0.0 | 0.0 | 0.00 | 0.00 | 0.00 | 68 | 1005.9 |
| 20260830230122 | 15 | 321 | 0.0 | 0.0 | 0.00 | 0.00 | 0.00 | 65 | 1006.9 |
| 20260830224551 | 15 | 308 | 0.0 | 0.0 | 0.00 | 0.08 | 0.00 | 57 | 1006.6 |
| 20260830223057 | 16 | 296 | 0.0 | 8.0 | 0.00 | 0.08 | 0.00 | 50 | 1006.0 |
| 20260830221557 | 17 | 150 | 0.0 | 0.0 | 0.00 | 0.08 | 0.00 | 48 | 1005.1 |
| 20260830220124 | 16 | 138 | 0.0 | 0.0 | 0.00 | 0.08 | 0.00 | 50 | 1004.8 |